Powrót do katalogu

ONEWEB-0387

AktywnyŁącznośćPO
NORAD 49313·PAYLOAD·🇬🇧 United Kingdom

Wystrzelony Oct 14, 2021 z Vostochny Cosmodrome

Loading…

Następne Przeloty (najbliższe 24 godziny)

TLE

ŚwieżeSource: CelesTrak SupGP

Epoka: Sep 14, 2026, 15:11 UTC

1 49313C 21090AL  26257.63280509 -.00001286  00000+0 -31667-2 0  2577
2 49313  87.9142 256.6057 0002027  99.9308  12.3495 13.20774016    19

Śledź ONEWEB-0387 w czasie rzeczywistym z AllMySat

Download on the App Store